Date String (YYYY-MM-DD hh:mm:ss) UTC,Instrument flags,absolute air pressure of the measurement (hPa),sample flow rate (lpm),inlet stack bypass flow (lpm),air temperature of the measurement (°C),ambient temperature measured by the external sensor (°C),aerosol sample conditioner tube jacket temperature (°C),OPC LED temperature (°C),internal box temperature (°C),relative humidity of the measurement (%),span deviation,mass concentration of particles derived from Lorenz-Mie calculation of OPC scattering (μg/m³),mass concentration of particles derived from Lorenz-Mie calculation of OPC scattering (μg/m³),mass concentration of particles derived from Lorenz-Mie calculation of OPC scattering (μg/m³)
DateTimeUTC,F1_M11,P_M11,Q1_M11,Q2_M11,T1_M11,T2_M11,T3_M11,T4_M11,T5_M11,U1_M11,ZSPAN_M11,X0_M11,X2_M11,X1_M11
2023-10-07 12:00:00,SystemResetWarning,0838.0,5.00,000.00,025.0,023.5,000.0,033.5,026.7,20.5,0001.0,0012.32,0006.71,0006.18
2023-10-07 12:01:00,SystemResetWarning,0838.0,5.00,000.00,025.0,023.5,000.0,033.5,026.7,20.5,0001.6,0011.85,0006.67,0006.17
2023-10-07 12:02:00,SystemResetWarning,0837.9,5.00,000.00,025.0,023.5,000.0,033.5,026.7,20.5,0001.1,0012.04,0006.64,0006.17
2023-10-07 12:03:00,SystemResetWarning,0837.9,5.01,000.00,025.0,023.4,000.0,033.5,026.6,20.5,0002.0,0011.36,0006.63,0006.16
2023-10-07 12:04:00,SystemResetWarning,0837.9,5.00,000.00,025.0,023.4,000.0,033.5,026.6,20.5,0001.9,0010.92,0006.64,0006.16
2023-10-07 12:05:00,SystemResetWarning,0838.0,4.99,000.00,025.0,023.4,000.0,033.5,026.6,20.5,0001.0,0010.86,0006.69,0006.16
2023-10-07 12:06:00,SystemResetWarning,0838.0,5.01,000.00,025.0,023.4,000.0,033.5,026.6,20.5,0000.4,0010.82,0006.70,0006.16
2023-10-07 12:07:00,SystemResetWarning,0838.0,5.01,000.00,024.9,023.4,000.0,033.5,026.6,20.5,-000.1,0011.65,0006.68,0006.15
2023-10-07 12:08:00,SystemResetWarning,0838.0,5.00,000.00,024.9,023.4,000.0,033.5,026.6,20.5,0000.0,0012.20,0006.71,0006.14
2023-10-07 12:09:00,SystemResetWarning,0838.0,5.00,000.00,024.9,023.4,000.0,033.5,026.5,20.5,-000.9,0012.17,0006.71,0006.13
2023-10-07 12:10:00,SystemResetWarning,0838.0,5.01,000.00,024.9,023.3,000.0,033.4,026.5,20.5,-001.2,0012.09,0006.68,0006.11
2023-10-07 12:11:00,SystemResetWarning,0838.0,5.00,000.00,024.9,023.3,000.0,033.4,026.5,20.5,-000.5,0012.19,0006.70,0006.11
2023-10-07 12:12:00,SystemResetWarning,0838.0,5.00,000.00,024.9,023.3,000.0,033.4,026.5,20.5,0000.1,0012.05,0006.72,0006.10
2023-10-07 12:13:00,SystemResetWarning,0838.0,5.00,000.00,024.9,023.3,000.0,033.4,026.5,20.5,0000.6,0011.69,0006.70,0006.10
2023-10-07 12:14:00,SystemResetWarning,0838.0,4.99,000.00,024.9,023.3,000.0,033.4,026.5,20.4,0000.1,0011.65,0006.70,0006.10
2023-10-07 12:15:00,SystemResetWarning,0838.0,5.00,000.00,024.9,023.3,000.0,033.4,026.5,20.4,0000.7,0012.06,0006.72,0006.10
2023-10-07 12:16:00,SystemResetWarning,0837.9,5.00,000.00,024.8,023.3,000.0,033.4,026.5,20.4,0001.3,0013.11,0006.72,0006.11
2023-10-07 12:17:00,SystemResetWarning,0837.9,5.00,000.00,024.8,023.3,000.0,033.4,026.5,20.5,0001.8,0013.19,0006.70,0006.11
2023-10-07 12:18:00,SystemResetWarning,0837.8,5.00,000.00,024.8,023.3,000.0,033.4,026.5,20.5,0000.5,0012.68,0006.71,0006.11
2023-10-07 12:19:00,SystemResetWarning,0837.8,5.00,000.00,024.8,023.3,000.0,033.3,026.4,20.5,0000.0,0012.09,0006.68,0006.11
2023-10-07 12:20:00,SystemResetWarning,0837.8,5.00,000.00,024.8,023.2,000.0,033.3,026.4,20.5,0000.0,0012.07,0006.67,0006.13
2023-10-07 12:21:00,SystemResetWarning,0837.8,5.00,000.00,024.8,023.2,000.0,033.3,026.4,20.6,0001.6,0012.08,0006.69,0006.14
2023-10-07 12:22:00,SystemResetWarning,0837.8,5.01,000.00,024.7,023.2,000.0,033.3,026.4,20.6,0000.0,0012.09,0006.71,0006.13
2023-10-07 12:23:00,SystemResetWarning,0837.8,5.00,000.00,024.7,023.2,000.0,033.3,026.3,20.6,0000.0,0012.00,0006.70,0006.13
2023-10-07 12:24:00,SystemResetWarning,0837.8,4.98,000.00,024.7,023.2,000.0,033.3,026.3,20.6,0000.0,0012.04,0006.73,0006.14
2023-10-07 12:25:00,SystemResetWarning,0837.8,5.00,000.00,024.7,023.2,000.0,033.3,026.3,20.6,0000.0,0012.30,0006.75,0006.14
2023-10-07 12:26:00,SystemResetWarning,0837.8,5.01,000.00,024.7,023.2,000.0,033.3,026.3,20.6,0000.0,0012.02,0006.76,0006.14
2023-10-07 12:27:00,SystemResetWarning,0837.8,5.01,000.00,024.7,023.2,000.0,033.2,026.3,20.6,0000.0,0010.93,0006.75,0006.14
2023-10-07 12:28:00,SystemResetWarning,0837.8,5.01,000.00,024.7,023.1,000.0,033.2,026.3,20.6,0000.0,0010.85,0006.78,0006.14
2023-10-07 12:29:00,SystemResetWarning,0837.8,5.00,000.00,024.6,023.1,000.0,033.2,026.2,20.6,0000.0,0010.88,0006.79,0006.15
2023-10-07 12:30:00,SystemResetWarning,0837.8,4.99,000.00,024.6,023.1,000.0,033.2,026.2,20.6,0000.5,0011.67,0006.79,0006.15
2023-10-07 12:31:00,SystemResetWarning,0837.8,4.99,000.00,024.6,023.1,000.0,033.2,026.2,20.6,0000.0,0011.64,0006.79,0006.14
2023-10-07 12:32:00,SystemResetWarning,0837.8,5.02,000.00,024.6,023.1,000.0,033.2,026.2,20.6,0000.0,0011.85,0006.79,0006.14
2023-10-07 12:33:00,SystemResetWarning,0837.8,5.01,000.00,024.6,023.1,000.0,033.2,026.2,20.6,0000.0,0011.98,0006.78,0006.15
2023-10-07 12:34:00,SystemResetWarning,0837.7,4.99,000.00,024.6,023.0,000.0,033.1,026.2,20.6,0000.0,0011.98,0006.78,0006.17
2023-10-07 12:35:00,SystemResetWarning,0837.8,4.99,000.00,024.6,023.0,000.0,033.1,026.2,20.6,0000.0,0012.06,0006.76,0006.17
2023-10-07 12:36:00,SystemResetWarning,0837.8,5.01,000.00,024.6,023.0,000.0,033.1,026.1,20.6,0000.0,0011.93,0006.75,0006.18
2023-10-07 12:37:00,SystemResetWarning,0837.8,5.01,000.00,024.5,023.0,000.0,033.1,026.1,20.6,0000.0,0011.85,0006.72,0006.17
2023-10-07 12:38:00,SystemResetWarning,0837.8,5.00,000.00,024.5,023.0,000.0,033.1,026.1,20.7,0000.0,0011.83,0006.69,0006.17
2023-10-07 12:39:00,SystemResetWarning,0837.8,5.00,000.00,024.5,023.0,000.0,033.1,026.1,20.7,0000.0,0011.76,0006.66,0006.18
2023-10-07 12:40:00,SystemResetWarning,0837.8,5.00,000.00,024.5,023.0,000.0,033.1,026.2,20.6,0000.0,0011.60,0006.66,0006.19
2023-10-07 12:41:00,SystemResetWarning,0837.8,5.00,000.00,024.5,023.0,000.0,033.0,026.2,20.6,0000.0,0010.48,0006.66,0006.20
2023-10-07 12:42:00,SystemResetWarning,0837.8,5.00,000.00,024.5,023.0,000.0,033.0,026.2,20.6,0000.0,0010.49,0006.71,0006.22
2023-10-07 12:43:00,SystemResetWarning,0837.8,5.00,000.00,024.5,023.1,000.0,033.0,026.2,20.6,0000.0,0010.39,0006.75,0006.24
2023-10-07 12:44:00,SystemResetWarning,0837.8,5.01,000.00,024.5,023.1,000.0,033.0,026.2,20.6,0000.0,0010.48,0006.79,0006.26
2023-10-07 12:45:00,SystemResetWarning,0837.8,5.01,000.00,024.5,023.1,000.0,033.0,026.2,20.6,0000.0,0010.63,0006.79,0006.27
2023-10-07 12:46:00,SystemResetWarning,0837.8,5.00,000.00,024.5,023.1,000.0,033.0,026.2,20.6,0000.0,0010.76,0006.84,0006.30
2023-10-07 12:47:00,SystemResetWarning,0837.8,4.99,000.00,024.5,023.1,000.0,033.0,026.2,20.5,0000.0,0010.82,0006.87,0006.31
2023-10-07 12:48:00,SystemResetWarning,0837.8,4.99,000.00,024.5,023.1,000.0,033.0,026.2,20.5,0000.0,0010.83,0006.92,0006.33
2023-10-07 12:49:00,SystemResetWarning,0837.9,5.01,000.00,024.5,023.1,000.0,033.0,026.2,20.5,0000.0,0010.89,0006.96,0006.34
2023-10-07 12:50:00,SystemResetWarning,0837.9,5.00,000.00,024.5,023.1,000.0,033.0,026.2,20.5,0000.0,0011.41,0007.00,0006.35
2023-10-07 12:51:00,SystemResetWarning,0837.9,5.00,000.00,024.5,023.1,000.0,033.0,026.3,20.5,0000.5,0011.80,0007.05,0006.36
2023-10-07 12:52:00,SystemResetWarning,0837.8,5.00,000.00,024.5,023.1,000.0,033.0,026.3,20.5,0000.0,0011.85,0007.10,0006.36
2023-10-07 12:53:00,SystemResetWarning,0837.8,5.00,000.00,024.6,023.1,000.0,033.0,026.3,20.4,0000.3,0011.87,0007.08,0006.35
2023-10-07 12:54:00,SystemResetWarning,0837.8,5.00,000.00,024.6,023.2,000.0,033.0,026.3,20.5,0000.7,0011.81,0007.06,0006.36
2023-10-07 12:55:00,SystemResetWarning,0837.8,5.00,000.00,024.6,023.2,000.0,033.0,026.3,20.5,0000.8,0011.55,0007.04,0006.36
2023-10-07 12:56:00,SystemResetWarning,0837.8,5.00,000.00,024.6,023.2,000.0,033.0,026.3,20.5,0000.5,0011.43,0007.08,0006.36
2023-10-07 12:57:00,SystemResetWarning,0837.8,5.00,000.00,024.6,023.2,000.0,033.0,026.3,20.5,0000.5,0011.33,0007.08,0006.36
2023-10-07 12:58:00,SystemResetWarning,0837.8,5.00,000.00,024.6,023.2,000.0,033.0,026.3,20.5,0000.5,0011.25,0007.06,0006.36
2023-10-07 12:59:00,SystemResetWarning,0837.8,5.00,000.00,024.6,023.1,000.0,033.0,026.2,20.5,0000.3,0011.30,0007.03,0006.35
